User: anonymous   Login
Location: T�chigga el Be�da
(16.4766°N, 9.3887°W)
Time: 07:32:56
(UTC+00:00)
Language:

CZ-3 Stage 3 - Orbit

View from above orbital plane
View from above orbital plane
View from above satellite
View from above satellite

Ground track
Ground track

The orbit data is extracted from the following two-line orbital elements,

1 20559U 90030B   20156.66641354 +.00018687 +00000-0 +81311-3 0  9999
2 20559 030.8524 359.2357 5425749 099.8488 322.5720 05.00755640117867
Epoch (UTC): 04 June 2020 15:59:38
Eccentricity: 0.5425749
inclination: 30.8524°
perigee height: 223 km
apogee height: 15884 km
right ascension of ascending node: 359.2357°
argument of perigee: 99.8488°
revolutions per day: 5.00755640
mean anomaly at epoch: 322.5720°
orbit number at epoch: 11786

The dashed part of the orbit path shows where the satellite is in the earth's shadow,  

DLR